Weather History for Alamogordo, NM

Change the Weather History Date:

Sunday, February 17, 2013

  Actual Average Record
Temperature  
Mean Temperature 42 °F -  
Max Temperature 64 °F 62 °F 76 °F (1977)
Min Temperature 21 °F 34 °F 1 °F (1998)
Degree Days  
Heating Degree Days 22    
Moisture  
Dew Point 5 °F    
Average Humidity 20    
Maximum Humidity 36    
Minimum Humidity 9    
Precipitation  
Precipitation 0.00 in - - ()
Sea Level Pressure  
Sea Level Pressure 29.98 in    
Wind  
Wind Speed 6 mph (South)    
Max Wind Speed 18 mph    
Max Gust Speed 22 mph    
Visibility 10 miles    
Events      
Averages and records for this station are not official NWS values.
T = Trace of Precipitation, MM = Missing Value Source: NWS Daily Summary

Daily Weather History Graph

Daily Weather History Graph

Search for Another Location

Airport:

Trip Planner

Search our weather history database for the weather conditions in past years. The results will help you decide how hot, cold, wet, or windy it might be!

Date:

Astronomy

Feb. 17, 2013 Rise Set
Actual Time 6:44 AM MST 5:51 PM MST
Civil Twilight 6:19 AM MST 6:16 PM MST
Nautical Twilight 5:50 AM MST 6:45 PM MST
Astronomical Twilight 5:22 AM MST 7:14 PM MST
Moon 11:05 AM MST (2/17) 12:24 AM MST (2/17)
Length of Visible Light 11h 56m
Length of Day
11h 06m
Waxing Crescent, 49% of the Moon is Illuminated
Feb 17
Waxing Crescent
Feb 17
First Quarter
Feb 25
Full
Mar 4
Last Quarter
Mar 11
New

Hourly Weather History & Observations

Time (MST) Temp. Windchill Dew Point Humidity Pressure Visibility Wind Dir Wind Speed Gust Speed Precip Events Conditions
12:15 AM 37.4 °F 34.9 °F 1.4 °F 22% 30.17 in 10.0 mi SE 3.5 mph - N/A   Clear
12:35 AM 35.6 °F 31.7 °F -0.4 °F 22% 30.16 in 10.0 mi SE 4.6 mph - N/A   Clear
12:55 AM 35.6 °F 30.7 °F -0.4 °F 22% 30.16 in 10.0 mi ESE 5.8 mph - N/A   Clear
1:15 AM 32.0 °F 26.4 °F -0.4 °F 25% 30.16 in 10.0 mi ESE 5.8 mph - N/A   Clear
1:35 AM 32.0 °F 27.5 °F -0.4 °F 25% 30.15 in 10.0 mi East 4.6 mph - N/A   Clear
1:55 AM 32.0 °F - -0.4 °F 25% 30.15 in 10.0 mi Calm Calm - N/A   Clear
2:15 AM 33.8 °F - -0.4 °F 23% 30.14 in 10.0 mi Calm Calm - N/A   Clear
2:35 AM 35.6 °F - -0.4 °F 22% 30.13 in 10.0 mi Calm Calm - N/A   Clear
2:55 AM 32.0 °F - -0.4 °F 25% 30.12 in 10.0 mi Calm Calm - N/A   Clear
3:15 AM 33.8 °F 30.8 °F -0.4 °F 23% 30.12 in 10.0 mi WNW 3.5 mph - N/A   Clear
3:35 AM 30.2 °F 26.7 °F -0.4 °F 27% 30.12 in 10.0 mi North 3.5 mph - N/A   Clear
3:55 AM 24.8 °F 20.5 °F -2.2 °F 31% 30.11 in 10.0 mi NNE 3.5 mph - N/A   Clear
4:15 AM 28.4 °F 22.2 °F -0.4 °F 29% 30.10 in 10.0 mi NNE 5.8 mph - N/A   Clear
4:55 AM 28.4 °F - -0.4 °F 29% 30.09 in 10.0 mi Calm Calm - N/A   Clear
5:15 AM 28.4 °F 24.6 °F -0.4 °F 29% 30.09 in 10.0 mi WNW 3.5 mph - N/A   Clear
5:35 AM 32.0 °F - -0.4 °F 25% 30.09 in 10.0 mi Calm Calm - N/A   Clear
5:55 AM 26.6 °F - -0.4 °F 31% 30.08 in 10.0 mi Calm Calm - N/A   Clear
6:15 AM 23.0 °F - -4.0 °F 31% 30.08 in 10.0 mi Calm Calm - N/A   Clear
6:35 AM 23.0 °F 18.4 °F -2.2 °F 33% 30.08 in 10.0 mi North 3.5 mph - N/A   Clear
6:55 AM 21.2 °F 14.9 °F -2.2 °F 36% 30.08 in 10.0 mi NNE 4.6 mph - N/A   Clear
7:15 AM 23.0 °F 18.4 °F -0.4 °F 36% 30.08 in 10.0 mi East 3.5 mph - N/A   Clear
7:35 AM 26.6 °F - -0.4 °F 31% 30.08 in 10.0 mi Calm Calm - N/A   Clear
7:55 AM 33.8 °F - 8.6 °F 35% 30.09 in 10.0 mi Calm Calm - N/A   Clear
8:15 AM 37.4 °F - 6.8 °F 28% 30.09 in 10.0 mi Calm Calm - N/A   Clear
8:35 AM 39.2 °F 37.0 °F 6.8 °F 26% 30.09 in 10.0 mi SSE 3.5 mph - N/A   Clear
8:55 AM 41.0 °F - 6.8 °F 24% 30.08 in 10.0 mi Calm Calm - N/A   Clear
9:15 AM 42.8 °F - 6.8 °F 23% 30.08 in 10.0 mi Calm Calm - N/A   Clear
9:35 AM 44.6 °F - 6.8 °F 21% 30.07 in 10.0 mi Calm Calm - N/A   Clear
9:55 AM 48.2 °F - 6.8 °F 19% 30.06 in 10.0 mi SSW 6.9 mph - N/A   Clear
10:15 AM 50.0 °F - 8.6 °F 19% 30.05 in 10.0 mi South 6.9 mph - N/A   Clear
10:35 AM 53.6 °F - 8.6 °F 16% 30.05 in 10.0 mi South 10.4 mph - N/A   Clear
10:55 AM 53.6 °F - 8.6 °F 16% 30.04 in 10.0 mi SW 11.5 mph - N/A   Clear
11:15 AM 55.4 °F - 8.6 °F 15% 30.03 in 10.0 mi SSW 10.4 mph - N/A   Clear
11:35 AM 55.4 °F - 8.6 °F 15% 30.02 in 10.0 mi South 12.7 mph - N/A   Clear
11:55 AM 57.2 °F - 8.6 °F 14% 30.00 in 10.0 mi South 11.5 mph 18.4 mph N/A   Clear
12:15 PM 59.0 °F - 6.8 °F 13% 29.98 in 10.0 mi SSE 9.2 mph - N/A   Clear
12:35 PM 62.6 °F - 6.8 °F 11% 29.96 in 10.0 mi SSW 11.5 mph 17.3 mph N/A   Clear
12:55 PM 62.6 °F - 5.0 °F 10% 29.94 in 10.0 mi South 17.3 mph 20.7 mph N/A   Clear
1:15 PM 62.6 °F - 5.0 °F 10% 29.93 in 10.0 mi South 16.1 mph - N/A   Clear
1:35 PM 62.6 °F - 5.0 °F 10% 29.92 in 10.0 mi SSE 13.8 mph 19.6 mph N/A   Clear
1:55 PM 64.4 °F - 5.0 °F 10% 29.91 in 10.0 mi South 15.0 mph 20.7 mph N/A   Clear
2:15 PM 64.4 °F - 5.0 °F 10% 29.89 in 10.0 mi SSE 18.4 mph - N/A   Clear
2:35 PM 64.4 °F - 5.0 °F 10% 29.87 in 10.0 mi SSE 13.8 mph 21.9 mph N/A   Clear
2:55 PM 64.4 °F - 5.0 °F 10% 29.87 in 10.0 mi SE 11.5 mph 19.6 mph N/A   Clear
3:15 PM 64.4 °F - 5.0 °F 10% 29.87 in 10.0 mi South 15.0 mph 19.6 mph N/A   Clear
3:35 PM 64.4 °F - 5.0 °F 10% 29.86 in 10.0 mi South 10.4 mph - N/A   Clear
3:55 PM 64.4 °F - 3.2 °F 9% 29.85 in 10.0 mi SSW 10.4 mph - N/A   Clear
4:15 PM 64.4 °F - 5.0 °F 10% 29.84 in 10.0 mi SSE 15.0 mph - N/A   Clear
4:35 PM 64.4 °F - 3.2 °F 9% 29.84 in 10.0 mi South 10.4 mph 17.3 mph N/A   Clear
4:55 PM 62.6 °F - 5.0 °F 10% 29.83 in 10.0 mi South 12.7 mph - N/A   Clear
5:15 PM 62.6 °F - 5.0 °F 10% 29.83 in 10.0 mi SSE 11.5 mph - N/A   Clear
5:35 PM 60.8 °F - 1.4 °F 9% 29.83 in 10.0 mi South 10.4 mph - N/A   Clear
5:55 PM 55.4 °F - 1.4 °F 11% 29.83 in 10.0 mi South 10.4 mph - N/A   Clear
6:15 PM 53.6 °F - 1.4 °F 12% 29.83 in 10.0 mi South 11.5 mph - N/A   Clear
6:35 PM 50.0 °F - 10.4 °F 20% 29.83 in 10.0 mi SSE 13.8 mph - N/A   Clear
6:55 PM 48.2 °F - 12.2 °F 24% 29.83 in 10.0 mi SE 11.5 mph - N/A   Clear
7:15 PM 50.0 °F - 8.6 °F 19% 29.83 in 10.0 mi SE 9.2 mph - N/A   Clear
7:35 PM 53.6 °F - 5.0 °F 14% 29.83 in 10.0 mi SSW 5.8 mph - N/A   Clear
7:55 PM 48.2 °F - 10.4 °F 22% 29.83 in 10.0 mi SSE 9.2 mph - N/A   Clear
8:15 PM 48.2 °F - 8.6 °F 20% 29.83 in 10.0 mi South 9.2 mph - N/A   Clear
8:35 PM 48.2 °F - 8.6 °F 20% 29.83 in 10.0 mi SSE 10.4 mph - N/A   Clear
8:55 PM 50.0 °F - 10.4 °F 20% 29.83 in 10.0 mi SSE 15.0 mph - N/A   Clear
9:15 PM 53.6 °F - 10.4 °F 18% 29.84 in 10.0 mi SSE 15.0 mph - N/A   Clear
9:35 PM 51.8 °F - 10.4 °F 19% 29.85 in 10.0 mi South 12.7 mph - N/A   Clear
9:55 PM 51.8 °F - 10.4 °F 19% 29.85 in 10.0 mi South 11.5 mph 16.1 mph N/A   Clear
10:15 PM 50.0 °F - 8.6 °F 19% 29.86 in 10.0 mi South 9.2 mph - N/A   Clear
10:35 PM 51.8 °F - 8.6 °F 18% 29.86 in 10.0 mi South 10.4 mph 16.1 mph N/A   Clear
10:55 PM 51.8 °F - 10.4 °F 19% 29.86 in 10.0 mi South 11.5 mph 17.3 mph N/A   Clear
11:15 PM 50.0 °F - 10.4 °F 20% 29.87 in 10.0 mi SSW 6.9 mph - N/A   Clear
11:35 PM 50.0 °F - 3.2 °F 15% 29.88 in 10.0 mi South 4.6 mph - N/A   Clear
11:55 PM 48.2 °F - 6.8 °F 19% 29.89 in 10.0 mi SSE 6.9 mph - N/A   Scattered Clouds